Погода в Батецком

Россия / Новгородская область     58°38′41″N   30°18′06″E
темп.,
°C
ветер,
м/с
пор.,
м/с
влажн.,
%
обл.,
%
осадки,
мм/ч
давл.,
гПа
погр.,
м
12 мая, ср
ср1200:00+12ююв27880 0.0 1023127
03:00+10ююв27870 0.0 1023136
06:00+10ююв26830 0.0 1024144
09:00+16ююв35630 0.0 1024360
12:00+21ююв45540 0.0 1023995
15:00+23юв46490 0.0 10221756
18:00+22вюв35550 0.0 10201371
21:00+16в2278100 0.0 101911
13 мая, чт
чт1300:00+14всв368416 0.0 1018108
03:00+13всв3109069 0.0 1017234
06:00+14вюв4109158 0.0 1016679
09:00+16юв586880 0.1 10161090
12:00+18юв47475 0.0 10161435
15:00+19вюв574211 0.0 10151960
18:00+17юв2658100 0.0 1013548
21:00+14всв2269100 0.0 101227
14 мая, пт
пт1400:00+13всв2480100 0.3 1010106
03:00+11зюз2398100 5.5 1009117
06:00+10ююз3895100 0.1 1010430
09:00+13ююз47795 0.1 1011694
12:00+17ю5852100 0.0 10111695
15:00+18ююв365782 0.0 10121409
18:00+17ююв3768100 0.4 10111118
21:00+13вюв23915 0.7 101047
15 мая, сб
сб1500:00+11в259215 0.0 101087
03:00+11всв2494100 0.0 100884
06:00+12всв389098 0.0 1007278
09:00+14юв3691100 1.3 1006523
12:00+16ююв358289 0.1 1006699
15:00+19ю347625 2.6 1005949
18:00+19ююз12756 1.1 1004692
21:00+14зсз229375 1.4 100418
16 мая, вс
вс1600:00+12зсз1193100 0.1 100410
03:00+12з2497100 0.3 1004108
06:00+11зюз2698100 1.4 1005236
09:00+14з3586100 1.5 1007635
12:00+15з3684100 0.2 1008803
15:00+13з4887100 0.9 1011639
18:00+17з36595 0.0 10111404
21:00+12зюз22760 0.0 101311